DIRECTV 5 (TEMPO 1)

Satellite information

Favourite Embed

Satellite Type and Status

PAYLOADIN ORBIT

Key statistics

Satellite DIRECTV 5 (TEMPO 1) at a glance.

Uptime

8577

Days in orbit

Revolutions

≈ 1.0

Per day

Orbit

GEO

Geostationary Orbit

Inclination

4.3

Latest

Satellite identification and parameters

Extended collection of information and parameters for DIRECTV 5 (TEMPO 1).

Object identification

Identified? True

Debris? False

Object name: DIRECTV 5 (TEMPO 1)

International designator: 2002-023A

Object number (NORAD): 27426

Object ID (CCSDS): 27426

Country: UNITED STATES OF AMERICA (US)

Current information (Y/N): Y

RCS size: LARGE

Orbital parameters

Period: 1436.095 minutes

Inclination: 4.2849 deg

SMA: 42164.697 km

Apoapsis: 35801.207 km

Periapsis: 35771.918 km

RAAN: 78.1762 deg

Eccentricy: 0.00034731

Argument of periapsis: 151.2148 deg

Mean anomaly: 14.8265 deg

Mean motion: 1.00271908 rev/day

Mean motion (dot): -0.00000044 rev/day2

B* drag term: 0.0 1/REarth

Two-line elements (TLE)

Creation date: Oct. 30, 2025, 3:32 a.m.

Reference frame: TEME

Reference center: EARTH

Epoch: Oct. 29, 2025, 9:03 p.m. UTC

TLE line 0: 0 DIRECTV 5 (TEMPO 1)

TLE line 1: 1 27426U 02023A 25302.87737814 -.00000044 00000-0 00000-0 0 9994

TLE line 2: 2 27426 4.2849 78.1762 0003473 151.2148 14.8265 1.00271908 85816

Live tracking on map

Real-time ground track for satellite DIRECTV 5 (TEMPO 1).

In-orbit conjunctions

There are no conjunctions computed for DIRECTV 5 (TEMPO 1), at the moment. Check back to stay up to date, as we update our databases every day.

Go to all conjunctions

Associated space launch

T5 (formerly DirecTV-5) is a dormant communications satellite launched from Baikonur Cosmodrome, Kazakhstan in May, 2002 to provide mainly Spanish language satellite television programs to DirecTV customers from the 119 degrees West longitudinal orbit. It was built by Space Systems/Loral, as part of its LS-1300 line. In May 2004, DIRECTV successfully launched DIRECTV 7S (later T7S), their second high powered spot beam. T7S is located at the 119 degree orbital slot. The satellite was renamed to T5 in 2017.

DIRECTV 5 (TEMPO 1) was lifted into orbit during the mission ‘Proton-K/DM-2M | DirecTV-5’, on board a Proton-K/DM-2M space rocket.

The launch took place on May 7, 2002, 5 p.m. from 81/24 (81P).

For more information about the launch, click the button.

Launch to space Proton-K/DM-2M | DirecTV-5
Proton-K/DM-2M | DirecTV-5

Agency: N/A

Status: Launch Successful

Launch date: May 7, 2002, 5 p.m. UTC

Rocket: Proton-K/DM-2M

Launch pad: 81/24 (81P)

Location: Baikonur Cosmodrome, Republic of Kazakhstan

...

Latest news about this satellite

There are no fresh news available about this satellite. Check back as we update our databases every day.


Newsletter sign-up

Weekly statistics, charts and insights to help you stay on top of the space industry.